GW4152 Weather Reports


Display with metric or nautical units.
time (UTC)temp
F
wind
direction
speed
MPH
gust
MPH
rain 1hr
in
rain 24hr
in
rain mn
in
humidity
%
barometer
mb
20260509150038 57 207 4.0 9.0 0.00 0.00 0.00 72 1006.0
20260509145521 57 197 3.0 9.0 0.00 0.00 0.00 72 1006.0
20260509145021 57 223 5.0 9.0 0.00 0.00 0.00 72 1006.1
20260509144537 57 208 5.0 9.0 0.00 0.00 0.00 74 1006.1
20260509144020 57 232 2.0 8.0 0.00 0.00 0.00 76 1006.1
20260509143521 57 157 3.0 8.0 0.00 0.00 0.00 75 1006.1
20260509143037 57 195 2.0 8.0 0.00 0.00 0.00 76 1006.2
20260509142523 56 188 4.0 8.0 0.00 0.00 0.00 77 1006.2
20260509142020 56 254 3.0 8.0 0.00 0.00 0.00 77 1006.3
20260509141542 56 179 2.0 7.0 0.00 0.00 0.00 78 1006.3
20260509141021 56 221 3.0 9.0 0.00 0.00 0.00 78 1006.4
20260509140521 56 194 4.0 10.0 0.00 0.00 0.00 78 1006.4
20260509140036 56 209 4.0 10.0 0.00 0.00 0.00 78 1006.4
20260509135521 56 0 2.0 7.0 0.00 0.00 0.00 78 1006.3
20260509135026 56 213 3.0 9.0 0.00 0.00 0.00 79 1006.3
20260509134539 55 220 4.0 9.0 0.00 0.00 0.00 78 1006.2
20260509134020 55 229 5.0 9.0 0.00 0.00 0.00 78 1006.3
20260509133523 55 215 4.0 9.0 0.00 0.00 0.00 79 1006.3
20260509133038 55 223 4.0 9.0 0.00 0.00 0.00 79 1006.3
20260509132523 55 188 4.0 8.0 0.00 0.00 0.00 80 1006.2
20260509132020 55 201 2.0 9.0 0.00 0.00 0.00 81 1006.2
20260509131538 54 186 3.0 9.0 0.00 0.00 0.00 82 1006.3
20260509131022 54 174 5.0 9.0 0.00 0.00 0.00 81 1006.5
20260509130523 54 146 4.0 10.0 0.00 0.00 0.00 81 1006.6
20260509130040 53 167 3.0 10.0 0.00 0.00 0.00 82 1006.7
20260509125520 53 135 3.0 9.0 0.00 0.02 0.00 83 1006.7
20260509125020 53 188 4.0 9.0 0.00 0.02 0.00 83 1006.7
20260509124545 52 161 5.0 8.0 0.00 0.02 0.00 83 1006.7
20260509124020 52 184 2.0 8.0 0.00 0.02 0.00 84 1006.8
20260509123520 52 186 3.0 7.0 0.00 0.02 0.00 84 1006.8
20260509123042 52 203 2.0 7.0 0.00 0.02 0.00 85 1006.9
20260509122523 51 203 1.0 7.0 0.00 0.02 0.00 85 1006.9
20260509122020 51 203 3.0 6.0 0.00 0.02 0.00 85 1006.9
20260509121538 51 186 2.0 5.0 0.00 0.02 0.00 85 1007.0
20260509121023 50 169 1.0 6.0 0.00 0.02 0.00 85 1007.0
20260509120521 50 159 2.0 6.0 0.00 0.02 0.00 86 1007.1
20260509120035 50 189 2.0 6.0 0.00 0.02 0.00 86 1007.0
20260509115519 49 185 2.0 6.0 0.00 0.14 0.00 87 1006.9
20260509115022 49 158 2.0 5.0 0.00 0.14 0.00 87 1006.9
20260509114537 48 155 1.0 6.0 0.00 0.14 0.00 87 1006.9
20260509114020 48 155 3.0 6.0 0.00 0.14 0.00 88 1006.8
20260509113523 47 153 1.0 4.0 0.00 0.14 0.00 88 1007.0
20260509113040 47 148 1.0 4.0 0.00 0.14 0.00 88 1007.1
20260509112520 46 148 1.0 2.0 0.00 0.14 0.00 88 1007.0
20260509112020 46 0 0.0 2.0 0.00 0.14 0.00 88 1007.1
20260509111541 46 148 0.0 0.0 0.00 0.14 0.00 88 1007.2
20260509111023 46 0 0.0 2.0 0.00 0.14 0.00 88 1007.2
20260509110523 45 0 0.0 2.0 0.00 0.14 0.00 88 1007.3
20260509110041 45 0 0.0 2.0 0.00 0.14 0.00 89 1007.2
20260509105523 45 0 0.0 2.0 0.00 0.17 0.00 89 1007.2
20260509105023 45 0 1.0 3.0 0.00 0.17 0.00 89 1007.1
20260509104538 44 0 0.0 3.0 0.00 0.17 0.00 89 1007.2
20260509104020 44 148 0.0 3.0 0.00 0.17 0.00 89 1007.2
20260509103524 44 148 0.0 2.0 0.00 0.17 0.00 89 1007.0
20260509103044 43 0 0.0 2.0 0.00 0.17 0.00 89 1007.0
20260509102521 43 0 0.0 2.0 0.00 0.17 0.00 89 1006.9
20260509102021 43 0 0.0 2.0 0.00 0.17 0.00 89 1006.9
20260509101550 43 0 0.0 2.0 0.00 0.17 0.00 88 1006.9
20260509101020 42 0 0.0 2.0 0.00 0.17 0.00 88 1007.0
20260509100522 42 0 0.0 2.0 0.00 0.17 0.00 88 1006.9
20260509100037 42 148 0.0 2.0 0.00 0.17 0.00 87 1007.0
20260509095521 42 0 0.0 0.0 0.00 0.17 0.00 86 1007.0
20260509095020 42 0 0.0 0.0 0.00 0.17 0.00 86 1007.1
20260509094540 42 0 0.0 0.0 0.00 0.17 0.00 86 1007.1
20260509094022 42 0 0.0 0.0 0.00 0.17 0.00 85 1007.1
20260509093522 42 0 0.0 0.0 0.00 0.17 0.00 85 1007.0
20260509093038 43 0 0.0 0.0 0.00 0.17 0.00 84 1007.0
20260509092519 43 0 0.0 0.0 0.00 0.17 0.00 83 1007.0
20260509092020 43 0 0.0 0.0 0.00 0.17 0.00 82 1007.0
20260509091537 43 0 0.0 1.0 0.00 0.17 0.00 82 1007.1
20260509091024 44 0 0.0 2.0 0.00 0.17 0.00 82 1007.1
20260509090522 44 0 0.0 2.0 0.00 0.17 0.00 82 1007.1
20260509090045 44 0 0.0 2.0 0.00 0.17 0.00 82 1007.1
20260509085519 44 0 0.0 2.0 0.00 0.17 0.00 82 1007.1
20260509085019 44 0 0.0 2.0 0.00 0.17 0.00 82 1007.2
20260509084535 44 0 1.0 2.0 0.00 0.17 0.00 81 1007.2
20260509084020 44 0 0.0 3.0 0.00 0.17 0.00 80 1007.2
20260509083519 44 148 0.0 3.0 0.00 0.17 0.00 80 1007.2
20260509083053 44 148 1.0 3.0 0.00 0.17 0.00 80 1007.3
20260509082524 44 0 0.0 3.0 0.00 0.17 0.00 79 1007.3
20260509082022 43 148 1.0 3.0 0.00 0.17 0.00 79 1007.3
20260509081542 43 148 1.0 3.0 0.00 0.17 0.00 79 1007.3
20260509081023 43 148 0.0 4.0 0.00 0.17 0.00 78 1007.4
20260509080523 42 148 1.0 4.0 0.00 0.17 0.00 79 1007.4
20260509080040 42 148 0.0 2.0 0.00 0.17 0.00 78 1007.5
20260509075524 41 0 0.0 2.0 0.00 0.17 0.00 78 1007.5
20260509075022 41 0 0.0 2.0 0.00 0.17 0.00 77 1007.5
20260509074543 41 0 0.0 0.0 0.00 0.17 0.00 77 1007.6
20260509074022 40 0 0.0 0.0 0.00 0.17 0.00 76 1007.6
20260509073523 41 0 0.0 0.0 0.00 0.17 0.00 76 1007.6
20260509073043 41 0 0.0 0.0 0.00 0.17 0.00 75 1007.7
20260509072523 41 0 0.0 2.0 0.00 0.17 0.00 75 1007.7
20260509072023 41 0 0.0 2.0 0.00 0.17 0.00 75 1007.7
20260509071543 41 148 0.0 2.0 0.00 0.17 0.00 74 1007.7
20260509071020 41 148 0.0 2.0 0.00 0.17 0.00 74 1007.6
20260509070524 41 0 0.0 2.0 0.00 0.17 0.00 74 1007.7
20260509070040 41 148 0.0 2.0 0.00 0.17 0.00 74 1007.8
20260509065525 41 148 1.0 2.0 0.00 0.17 0.00 74 1007.8
20260509065025 41 148 0.0 2.0 0.00 0.17 0.00 74 1007.9
20260509064538 41 0 0.0 2.0 0.00 0.17 0.00 73 1007.8
20260509064021 41 148 0.0 2.0 0.00 0.17 0.00 73 1007.9
20260509063520 41 148 1.0 2.0 0.00 0.17 0.00 73 1008.1
20260509063038 41 148 1.0 3.0 0.00 0.17 0.00 73 1008.1
20260509062521 41 148 1.0 3.0 0.00 0.17 0.00 73 1008.2
20260509062020 40 148 1.0 3.0 0.00 0.17 0.00 75 1008.3
20260509061540 40 148 0.0 1.0 0.00 0.17 0.00 74 1008.4
20260509061024 40 0 0.0 0.0 0.00 0.17 0.00 74 1008.4
20260509060520 40 0 0.0 0.0 0.00 0.17 0.00 74 1008.5
20260509060047 40 0 0.0 0.0 0.00 0.17 0.00 73 1008.6
20260509055523 40 0 0.0 0.0 0.00 0.17 0.00 72 1008.7
20260509055021 41 0 0.0 0.0 0.00 0.17 0.00 71 1008.7
20260509054536 41 0 0.0 2.0 0.00 0.17 0.00 71 1008.8
20260509054020 41 0 0.0 2.0 0.00 0.17 0.00 70 1008.8
20260509053521 41 0 0.0 2.0 0.00 0.17 0.00 70 1008.8
20260509053102 41 148 0.0 3.0 0.00 0.17 0.00 69 1008.9
20260509052522 41 0 0.0 3.0 0.00 0.17 0.00 69 1008.9
20260509052020 41 148 0.0 4.0 0.00 0.17 0.00 69 1008.9
20260509051543 41 148 1.0 4.0 0.00 0.17 0.00 69 1009.0
20260509051021 41 136 1.0 3.0 0.00 0.17 0.00 70 1009.1
20260509050521 41 0 0.0 2.0 0.00 0.17 0.00 71 1009.2
20260509050039 41 0 0.0 2.0 0.00 0.17 0.00 71 1009.2
20260509045528 41 136 0.0 2.0 0.00 0.17 0.00 71 1009.2
20260509045021 41 0 0.0 2.0 0.00 0.17 0.00 71 1009.2
20260509044546 41 0 0.0 3.0 0.00 0.17 0.00 70 1009.2
20260509044020 41 0 0.0 6.0 0.00 0.17 0.00 70 1009.2
20260509043520 41 0 1.0 5.0 0.00 0.17 0.00 70 1009.5
20260509043046 41 0 0.0 2.0 0.00 0.17 0.00 72 1009.5
20260509042521 41 271 0.0 2.0 0.00 0.17 0.00 72 1009.5
20260509042021 41 271 0.0 2.0 0.00 0.17 0.00 72 1009.6
20260509041539 40 0 0.0 2.0 0.00 0.17 0.00 73 1009.6
20260509041021 40 0 0.0 2.0 0.00 0.17 0.00 73 1009.6
20260509040523 40 271 0.0 2.0 0.00 0.17 0.00 74 1009.6
20260509040046 40 271 0.0 1.0 0.00 0.17 0.00 76 1009.7
20260509035521 40 0 0.0 1.0 0.00 0.17 0.17 76 1009.8
20260509035021 40 0 0.0 1.0 0.00 0.17 0.17 76 1009.9
20260509034540 40 0 0.0 2.0 0.00 0.17 0.17 76 1009.9
20260509034020 40 0 0.0 2.0 0.00 0.17 0.17 76 1010.0
20260509033519 40 0 0.0 2.0 0.00 0.17 0.17 76 1010.0
20260509033043 40 0 0.0 2.0 0.00 0.17 0.17 78 1010.0
20260509032521 39 0 0.0 1.0 0.00 0.17 0.17 78 1010.0
20260509032022 39 0 0.0 1.0 0.00 0.17 0.17 80 1010.0
20260509031554 39 0 0.0 1.0 0.00 0.17 0.17 80 1010.1
20260509031023 39 0 0.0 0.0 0.00 0.17 0.17 80 1010.0
20260509030521 39 0 0.0 0.0 0.00 0.17 0.17 80 1009.9
20260509030057 40 0 0.0 0.0 0.00 0.17 0.17 79 1009.9
20260509025523 40 0 0.0 0.0 0.00 0.19 0.17 77 1010.0
20260509025020 40 0 0.0 0.0 0.00 0.19 0.17 77 1010.0
20260509024540 40 0 0.0 0.0 0.00 0.19 0.17 76 1010.1
20260509024020 40 0 0.0 0.0 0.00 0.19 0.17 76 1010.1
20260509023523 40 0 0.0 0.0 0.00 0.19 0.17 76 1010.1
20260509023041 40 0 0.0 0.0 0.00 0.19 0.17 75 1010.1
20260509022520 41 0 0.0 0.0 0.00 0.19 0.17 74 1010.1
20260509022021 41 0 0.0 0.0 0.00 0.19 0.17 74 1010.0
20260509021540 41 0 0.0 0.0 0.00 0.19 0.17 72 1010.1
20260509021019 42 0 0.0 0.0 0.00 0.19 0.17 71 1010.0
20260509020522 42 0 0.0 0.0 0.00 0.19 0.17 70 1010.0
20260509020041 42 0 0.0 0.0 0.00 0.19 0.17 70 1010.0
20260509015523 42 0 0.0 0.0 0.00 0.19 0.17 69 1010.0
20260509015024 42 0 0.0 0.0 0.00 0.19 0.17 68 1009.8
20260509014537 43 0 0.0 0.0 0.00 0.19 0.17 68 1009.8
20260509014022 43 0 0.0 0.0 0.00 0.19 0.17 67 1009.7
20260509013523 43 0 0.0 0.0 0.00 0.19 0.17 65 1009.7
20260509013040 44 0 0.0 0.0 0.00 0.19 0.17 61 1009.7
20260509012521 44 0 0.0 0.0 0.00 0.19 0.17 60 1009.7
20260509012024 44 0 0.0 0.0 0.00 0.19 0.17 56 1009.6
20260509011539 45 0 0.0 0.0 0.00 0.19 0.17 55 1009.5
20260509011022 45 0 0.0 0.0 0.00 0.19 0.17 60 1009.5
20260509010521 46 0 0.0 0.0 0.00 0.19 0.17 60 1009.6
20260509010037 46 0 0.0 0.0 0.00 0.19 0.17 60 1009.6
20260509005520 47 0 0.0 0.0 0.00 0.19 0.17 57 1009.5
20260509005019 47 0 0.0 0.0 0.00 0.19 0.17 55 1009.6
20260509004549 48 0 0.0 0.0 0.00 0.19 0.17 51 1009.5
20260509004025 49 0 0.0 0.0 0.00 0.19 0.17 53 1009.5
20260509003523 49 0 0.0 0.0 0.00 0.19 0.17 49 1009.4
20260509003051 50 0 0.0 0.0 0.00 0.19 0.17 51 1009.4
20260509002520 50 0 0.0 0.0 0.00 0.19 0.17 49 1009.3
20260509002020 51 0 0.0 0.0 0.00 0.19 0.17 47 1009.4
20260509001541 51 0 0.0 1.0 0.00 0.19 0.17 47 1009.3
20260509001020 52 0 0.0 1.0 0.00 0.19 0.17 45 1009.2
20260509000522 52 0 0.0 2.0 0.00 0.19 0.17 44 1009.1
20260509000038 52 0 0.0 3.0 0.00 0.19 0.17 42 1009.1
20260508235522 53 271 1.0 3.0 0.00 0.19 0.17 41 1009.1
20260508235022 53 271 1.0 3.0 0.00 0.19 0.17 39 1009.1
20260508234539 53 0 0.0 3.0 0.00 0.19 0.17 39 1009.2
20260508234022 53 277 0.0 3.0 0.00 0.19 0.17 38 1009.0
20260508233524 54 277 1.0 4.0 0.00 0.19 0.17 38 1009.1
20260508233044 54 278 1.0 4.0 0.00 0.19 0.17 37 1009.1
20260508232519 54 269 1.0 6.0 0.00 0.19 0.17 37 1009.2
20260508232020 54 215 1.0 6.0 0.00 0.19 0.17 38 1009.2
20260508231542 54 230 2.0 6.0 0.00 0.19 0.17 36 1009.2
20260508231021 54 216 3.0 6.0 0.00 0.19 0.17 37 1009.1
20260508230520 54 216 1.0 4.0 0.00 0.19 0.17 38 1009.1
20260508230042 55 216 2.0 5.0 0.00 0.19 0.17 37 1009.0
20260508225520 55 0 1.0 6.0 0.00 0.19 0.17 38 1009.0
20260508225021 55 213 2.0 8.0 0.00 0.19 0.17 36 1009.1
20260508224553 55 224 2.0 7.0 0.00 0.19 0.17 38 1009.1
20260508224023 55 196 3.0 7.0 0.00 0.19 0.17 36 1009.2
20260508223520 55 207 1.0 8.0 0.00 0.19 0.17 36 1009.1
20260508223047 55 235 3.0 8.0 0.00 0.19 0.17 38 1009.2
20260508222522 55 302 2.0 7.0 0.00 0.19 0.17 37 1009.1
20260508222021 55 284 2.0 8.0 0.00 0.19 0.17 37 1009.2
20260508221535 55 220 3.0 8.0 0.00 0.19 0.17 36 1009.1
20260508221023 56 213 2.0 8.0 0.00 0.19 0.17 37 1009.2
20260508220523 55 212 3.0 10.0 0.00 0.19 0.17 36 1009.2
20260508220047 55 0 3.0 10.0 0.00 0.19 0.17 38 1009.1
20260508215519 55 294 3.0 8.0 0.00 0.19 0.17 36 1009.1
20260508215019 55 292 3.0 8.0 0.00 0.19 0.17 38 1009.1
20260508214535 55 215 3.0 10.0 0.00 0.19 0.17 36 1009.2
20260508214020 55 265 5.0 10.0 0.00 0.19 0.17 36 1009.2
20260508213519 56 211 2.0 8.0 0.00 0.19 0.17 37 1009.2
20260508213041 55 235 2.0 10.0 0.00 0.19 0.17 35 1009.1
20260508212521 56 182 5.0 10.0 0.00 0.19 0.17 35 1009.2
20260508212023 56 182 3.0 10.0 0.00 0.19 0.17 38 1009.1
20260508211535 56 279 3.0 10.0 0.00 0.19 0.17 36 1009.0
20260508211021 56 305 3.0 9.0 0.00 0.19 0.17 37 1009.1
20260508210522 55 180 3.0 9.0 0.00 0.19 0.17 40 1009.1
20260508210045 55 219 5.0 12.0 0.00 0.19 0.17 35 1009.1
20260508205520 56 309 4.0 12.0 0.00 0.19 0.17 34 1009.1
20260508205020 56 208 4.0 10.0 0.00 0.19 0.17 36 1009.1
20260508204535 56 200 3.0 11.0 0.00 0.19 0.17 37 1009.1
20260508204019 56 192 4.0 11.0 0.00 0.19 0.17 38 1009.2
20260508203520 55 216 4.0 10.0 0.00 0.19 0.17 41 1009.1
20260508203042 55 182 4.0 9.0 0.00 0.19 0.17 38 1009.3
20260508202521 55 227 4.0 10.0 0.00 0.19 0.17 37 1009.5
20260508202027 55 252 4.0 10.0 0.00 0.19 0.17 41 1009.5
20260508201542 55 273 2.0 7.0 0.00 0.19 0.17 41 1009.6
20260508201027 56 298 2.0 8.0 0.00 0.19 0.17 44 1009.7
20260508200519 55 0 1.0 10.0 0.00 0.19 0.17 48 1009.7
20260508200042 55 305 5.0 10.0 0.00 0.19 0.17 43 1009.7
20260508195525 55 319 2.0 4.0 0.00 0.19 0.17 49 1009.7
20260508195022 54 55 1.0 7.0 0.00 0.19 0.17 44 1009.8
20260508194541 54 296 2.0 10.0 0.00 0.19 0.17 44 1009.9
20260508194023 55 302 4.0 10.0 0.00 0.19 0.17 48 1010.0
20260508193520 55 210 3.0 8.0 0.00 0.19 0.17 45 1010.1
20260508193037 54 217 4.0 8.0 0.00 0.19 0.17 45 1010.1
20260508192523 54 202 2.0 9.0 0.00 0.19 0.17 49 1010.2
20260508192020 55 244 4.0 9.0 0.00 0.19 0.17 50 1010.3
20260508191544 54 266 1.0 5.0 0.00 0.19 0.17 53 1010.3
20260508191020 54 47 0.0 7.0 0.00 0.19 0.17 49 1010.3
20260508190520 54 276 3.0 8.0 0.00 0.19 0.17 49 1010.4
20260508190037 53 300 2.0 10.0 0.00 0.19 0.17 52 1010.6
20260508185521 53 282 4.0 10.0 0.00 0.19 0.17 52 1010.6
20260508185019 53 190 2.0 4.0 0.00 0.19 0.17 53 1010.6
20260508184538 52 105 1.0 3.0 0.00 0.19 0.17 55 1010.6
20260508184019 51 63 1.0 3.0 0.00 0.19 0.17 52 1010.6
20260508183522 51 30 2.0 3.0 0.00 0.19 0.17 53 1010.6
20260508183045 51 189 0.0 5.0 0.00 0.19 0.17 55 1010.6
20260508182523 51 189 2.0 5.0 0.00 0.19 0.17 53 1010.6
20260508182023 51 189 2.0 6.0 0.00 0.19 0.17 52 1010.6
20260508181542 52 256 2.0 6.0 0.00 0.19 0.17 52 1010.6
20260508181021 52 234 1.0 7.0 0.00 0.19 0.17 51 1010.6
20260508180522 52 234 2.0 10.0 0.00 0.19 0.17 54 1010.7
20260508180039 52 242 4.0 11.0 0.00 0.19 0.17 52 1010.6
20260508175523 53 269 3.0 12.0 0.00 0.19 0.17 51 1010.7
20260508175022 52 241 5.0 12.0 0.00 0.19 0.17 49 1010.7
20260508174537 52 229 3.0 8.0 0.00 0.19 0.17 47 1010.9
20260508174023 52 186 4.0 10.0 0.00 0.19 0.17 47 1010.9
20260508173523 52 193 5.0 10.0 0.00 0.19 0.17 45 1010.9
20260508173036 52 165 2.0 9.0 0.00 0.19 0.17 51 1010.9
20260508172521 51 240 2.0 5.0 0.00 0.19 0.17 56 1011.0
20260508172022 51 187 2.0 4.0 0.00 0.19 0.17 55 1010.9
20260508171541 51 192 2.0 6.0 0.00 0.19 0.17 54 1011.0
20260508171021 51 188 1.0 12.0 0.00 0.19 0.17 52 1011.0
20260508170522 51 191 5.0 12.0 0.00 0.19 0.17 53 1011.1
20260508170039 51 209 4.0 9.0 0.00 0.19 0.17 56 1011.0
20260508165521 50 252 3.0 16.0 0.00 0.19 0.17 56 1011.1
20260508165025 50 236 5.0 16.0 0.00 0.19 0.17 58 1011.2
20260508164537 50 206 2.0 12.0 0.00 0.19 0.17 57 1011.2
20260508164022 50 206 5.0 12.0 0.00 0.19 0.17 57 1011.2
20260508163521 49 290 4.0 11.0 0.00 0.19 0.17 61 1011.4
20260508163038 50 319 2.0 9.0 0.00 0.19 0.17 62 1011.3
20260508162522 49 0 2.0 16.0 0.00 0.19 0.17 65 1011.4
20260508162021 49 236 4.0 16.0 0.00 0.19 0.17 63 1011.5
20260508161537 49 269 4.0 10.0 0.00 0.19 0.17 63 1011.5
20260508161022 49 286 2.0 14.0 0.00 0.19 0.17 65 1011.5
20260508160521 48 113 5.0 14.0 0.00 0.19 0.17 68 1011.6
20260508160036 48 254 5.0 11.0 0.00 0.19 0.17 67 1011.6
20260508155523 48 227 3.0 10.0 0.00 0.19 0.17 70 1011.7
20260508155021 47 317 5.0 11.0 0.00 0.19 0.17 69 1011.8
20260508154544 47 298 5.0 11.0 0.00 0.19 0.17 68 1012.0
20260508154022 47 212 3.0 7.0 0.00 0.19 0.17 74 1011.8
20260508153527 47 210 2.0 10.0 0.00 0.19 0.17 76 1012.0
20260508153041 46 210 3.0 10.0 0.00 0.19 0.17 77 1012.0
20260508152522 46 247 3.0 10.0 0.00 0.19 0.17 77 1012.0
20260508152022 46 235 2.0 8.0 0.00 0.19 0.17 78 1011.8
20260508151538 46 252 3.0 8.0 0.00 0.19 0.17 78 1011.9
20260508151022 45 297 3.0 8.0 0.00 0.19 0.17 80 1012.0